Weather History for Cape Girardeau, MO

Change the Weather History Date:

Friday, May 30, 2014

  Actual Average Record
Temperature  
Mean Temperature 78 °F 71 °F  
Max Temperature 87 °F 82 °F 94 °F (1977)
Min Temperature 69 °F 60 °F 44 °F (1984)
Degree Days  
Heating Degree Days 0 1  
Month to date heating degree days 78 68  
Since 1 July heating degree days 4941 4386  
Cooling Degree Days 13 6  
Month to date cooling degree days 186 114  
Year to date cooling degree days 197 145  
Growing Degree Days 28 (Base 50)    
Moisture  
Dew Point 67 °F    
Average Humidity 73    
Maximum Humidity 97    
Minimum Humidity 48    
Precipitation  
Precipitation 0.00 in 0.14 in 1.41 in (1987)
Month to date precipitation 4.93 5.32  
Year to date precipitation 18.39 20.96  
Sea Level Pressure  
Sea Level Pressure 30.02 in    
Wind  
Wind Speed 5 mph (East)    
Max Wind Speed 15 mph    
Max Gust Speed 18 mph    
Visibility 10 miles    
Events      
T = Trace of Precipitation, MM = Missing Value Source: NWS Daily Summary

Daily Weather History Graph

Daily Weather History Graph

Search for Another Location

Airport:

Trip Planner

Search our weather history database for the weather conditions in past years. The results will help you decide how hot, cold, wet, or windy it might be!

Date:

Astronomy

May. 30, 2014 Rise Set
Actual Time 5:40 AM CDT 8:11 PM CDT
Civil Twilight 5:10 AM CDT 8:41 PM CDT
Nautical Twilight 4:32 AM CDT 9:19 PM CDT
Astronomical Twilight 3:51 AM CDT 10:01 PM CDT
Moon 7:23 AM CDT (5/30) 9:49 PM CDT (5/30)
Length of Visible Light 15h 31m
Length of Day
14h 31m
Waxing Crescent, 4% of the Moon is Illuminated
May 30
Waxing Crescent
Jun 5
First Quarter
Jun 12
Full
Jun 19
Last Quarter
Jun 27
New

Hourly Weather History & Observations

Time (CDT) Temp. Heat Index Dew Point Humidity Pressure Visibility Wind Dir Wind Speed Gust Speed Precip Events Conditions
12:53 AM 71.1 °F - 68.0 °F 90% 30.00 in 10.0 mi Calm Calm - N/A   Clear
1:53 AM 71.1 °F - 68.0 °F 90% 30.00 in 10.0 mi East 3.5 mph - N/A   Overcast
2:53 AM 71.1 °F - 68.0 °F 90% 30.00 in 10.0 mi Calm Calm - N/A   Partly Cloudy
3:53 AM 70.0 °F - 66.9 °F 90% 30.00 in 9.0 mi NE 3.5 mph - N/A   Clear
4:53 AM 70.0 °F - 68.0 °F 93% 30.01 in 8.0 mi NE 4.6 mph - N/A   Partly Cloudy
5:53 AM 69.1 °F - 66.9 °F 93% 30.02 in 7.0 mi NE 4.6 mph - N/A   Partly Cloudy
6:53 AM 70.0 °F - 68.0 °F 93% 30.03 in 8.0 mi East 3.5 mph - N/A   Clear
7:53 AM 72.0 °F - 68.0 °F 87% 30.03 in 10.0 mi SE 3.5 mph - N/A   Partly Cloudy
8:53 AM 75.9 °F - 68.0 °F 76% 30.04 in 10.0 mi East 4.6 mph - N/A   Clear
9:53 AM 77.0 °F - 69.1 °F 76% 30.05 in 10.0 mi Variable 3.5 mph - N/A   Clear
10:53 AM 80.1 °F 82.3 °F 66.9 °F 64% 30.06 in 10.0 mi SSE 4.6 mph - N/A   Clear
11:53 AM 82.0 °F 84.9 °F 68.0 °F 62% 30.06 in 10.0 mi East 9.2 mph - N/A   Mostly Cloudy
12:53 PM 84.2 °F 86.6 °F 66.2 °F 55% 30.05 in 10.0 mi ESE 5.8 mph - N/A   Partly Cloudy
1:53 PM 84.9 °F 87.1 °F 66.0 °F 53% 30.02 in 10.0 mi Variable 5.8 mph - N/A   Clear
2:53 PM 84.9 °F 86.6 °F 64.9 °F 51% 30.00 in 10.0 mi SE 8.1 mph - N/A   Clear
3:53 PM 86.0 °F 87.3 °F 64.4 °F 48% 30.00 in 10.0 mi East 5.8 mph - N/A   Clear
4:53 PM 84.9 °F 86.1 °F 64.0 °F 49% 29.99 in 10.0 mi East 10.4 mph 16.1 mph N/A   Clear
5:53 PM 82.9 °F 85.0 °F 66.0 °F 56% 29.98 in 10.0 mi SE 4.6 mph - N/A   Partly Cloudy
6:53 PM 81.0 °F 83.3 °F 66.9 °F 62% 29.99 in 10.0 mi NE 10.4 mph - N/A   Clear
7:53 PM 78.1 °F - 68.0 °F 71% 30.01 in 10.0 mi NE 6.9 mph - N/A   Clear
8:53 PM 75.9 °F - 66.9 °F 74% 30.01 in 10.0 mi NE 5.8 mph - N/A   Clear
9:53 PM 73.9 °F - 66.9 °F 79% 30.04 in 10.0 mi East 6.9 mph - N/A   Scattered Clouds
10:53 PM 73.0 °F - 68.0 °F 84% 30.04 in 10.0 mi East 4.6 mph - N/A   Clear
11:53 PM 72.0 °F - 68.0 °F 87% 30.05 in 9.0 mi NE 3.5 mph - N/A   Clear